GFSGL_sfc_rhum_132.txt.gz
RH
97 97 97 98 97 97 96 96 96 96 94 93 93 92 89 86 82 78 76 73 72 69 64 68 61 56 61 61 62 61 61 60 64 59 67 71 68 69 67 69 67 67 66
95 96 97 96 96 97 97 96 91 93 90 91 90 89 87 85 84 81 76 69 70 63 60 59 56 50 57 57 60 60 63 67 65 70 81 80 78 79 80 76 67 57 70
82 87 92 95 96 96 94 90 86 84 83 79 77 73 68 70 65 63 64 62 56 54 56 54 55 53 55 60 66 73 84 76 88 86 88 91 89 88 84 83 79 78 68
71 77 83 79 80 77 70 67 67 65 65 62 61 62 62 59 58 58 58 58 56 55 54 52 50 52 58 73 77 85 86 91 90 93 93 93 94 90 93 91 85 89 85
73 75 75 70 65 65 68 68 65 65 63 62 63 64 64 62 58 65 66 67 69 73 73 73 65 61 62 70 79 91 89 92 93 92 92 94 92 91 89 88 94 92 90
65 67 65 65 67 71 73 76 77 82 84 82 85 83 82 63 66 67 70 72 70 70 74 77 75 73 64 55 62 69 78 87 90 93 94 95 91 92 93 94 94 95 87
63 64 64 65 68 73 75 77 86 92 92 92 89 86 90 80 66 65 65 71 72 75 78 76 65 68 75 75 64 64 62 56 61 86 90 92 92 91 89 90 87 94 94
64 64 64 66 69 72 76 84 90 93 93 93 89 88 91 75 67 68 71 80 82 82 82 78 76 74 70 75 78 81 78 79 82 78 89 92 92 84 89 87 92 93 91
64 65 65 67 70 73 78 82 84 88 92 91 89 87 90 87 64 65 75 82 81 82 77 79 79 78 66 59 78 80 84 82 69 66 66 66 68 69 68 92 94 98 90
64 64 67 68 71 74 79 78 78 78 81 87 84 85 74 84 64 63 74 81 87 84 87 86 71 77 64 67 85 85 80 81 78 74 84 87 85 87 75 92 96 99 98
62 66 70 72 73 76 78 75 74 73 79 76 77 85 80 76 76 60 62 77 81 84 91 92 92 70 64 64 67 78 84 78 82 93 94 94 92 92 94 95 96 98 91
64 69 74 78 66 71 74 76 71 73 78 83 86 86 88 87 70 59 54 60 69 79 90 90 88 65 68 67 68 56 70 78 91 90 78 77 72 72 76 88 94 94 96
69 75 79 80 76 74 74 74 75 77 79 82 81 85 86 91 91 66 67 63 69 80 78 73 69 70 68 70 62 53 74 90 78 74 78 80 78 76 79 84 86 89 91
68 80 84 82 79 72 69 71 76 79 82 77 80 85 91 89 88 88 86 90 72 70 66 75 64 71 68 73 79 72 81 86 89 92 92 90 87 89 89 91 94 90 92
67 76 79 77 76 72 72 76 74 78 75 79 85 85 92 93 86 76 79 86 86 76 79 74 74 76 78 81 86 86 88 91 95 94 97 97 96 97 95 92 92 91 90
66 73 74 76 75 72 76 83 64 63 66 64 68 79 86 72 66 65 62 73 65 66 82 77 74 75 82 86 91 90 91 90 94 95 97 98 97 97 94 91 94 97 90
56 64 70 71 71 76 80 80 86 71 63 63 67 68 70 74 61 58 60 69 62 67 83 80 82 89 92 91 92 97 98 95 93 98 98 96 93 93 91 92 89 98 90
55 65 66 69 71 76 79 83 84 83 93 94 74 75 68 63 58 56 60 72 79 77 87 95 94 94 96 97 98 99 98 96 90 95 94 94 94 94 97 91 92 97 97
59 66 67 69 72 72 79 84 87 93 93 95 93 75 70 64 60 57 71 82 93 94 94 97 97 98 99 100 98 98 97 97 96 97 99 96 99 93 94 91 95 97 86
59 64 67 67 71 76 75 78 85 88 92 92 94 95 85 80 82 81 84 88 93 95 95 100 99 98 98 99 99 100 100 99 99 97 94 92 91 94 96 97 98 97 91
65 70 69 67 68 72 70 72 73 79 82 83 85 85 79 86 88 88 91 97 97 95 95 98 99 99 94 95 96 96 95 94 93 92 93 92 92 96 97 97 97 90 96
67 73 72 68 70 72 70 72 74 74 76 79 84 78 72 85 88 91 92 98 97 98 98 99 99 100 99 96 92 95 96 96 94 92 96 93 94 97 97 97 97 97 97
70 75 71 69 69 68 71 75 76 71 73 76 78 77 83 89 90 92 96 98 99 98 98 98 100 98 97 93 93 98 98 97 97 97 97 97 96 93 91 92 90 93 92
72 71 69 70 71 73 74 75 72 72 72 73 77 77 84 88 93 94 97 98 99 99 99 99 100 98 93 92 94 95 96 93 94 96 94 93 89 87 96 96 94 96 96
75 71 68 71 73 75 74 75 79 77 75 73 76 78 85 88 91 94 97 98 98 97 94 97 98 94 96 97 96 94 92 87 90 87 93 98 97 96 96 97 96 96 97
74 70 70 69 75 75 79 85 86 85 80 74 78 86 90 94 94 96 96 94 97 94 93 97 95 88 89 93 93 89 75 74 79 84 87 90 96 97 96 97 98 97 97

GFSGL_sfc_rhum_135.txt.gz
RH
96 95 91 92 89 90 94 96 96 96 95 94 93 93 92 89 83 82 82 77 73 70 69 71 67 61 64 64 63 61 62 62 70 60 56 51 50 46 45 47 49 47 48
94 95 96 94 92 92 93 95 89 92 92 92 91 89 87 85 77 73 70 67 67 65 64 62 58 51 60 59 62 60 61 61 61 54 61 56 51 53 54 52 52 43 46
87 89 92 93 94 96 93 86 82 84 83 83 84 83 80 77 72 62 61 58 55 53 57 55 55 53 56 59 63 62 67 62 65 58 56 60 61 59 57 54 52 47 44
80 82 82 81 77 74 74 70 69 66 65 63 62 60 60 58 57 55 54 51 48 48 51 51 47 47 55 59 61 64 63 66 64 65 67 64 63 62 62 58 53 52 55
79 77 73 70 69 67 67 64 60 58 56 55 56 58 58 55 54 61 60 57 55 57 57 50 50 54 61 58 60 66 66 66 67 68 65 66 61 57 58 60 68 63 59
69 69 68 67 67 68 66 63 62 63 61 60 60 59 61 58 68 67 60 57 59 63 66 61 62 67 61 64 70 68 64 66 70 68 69 72 60 62 67 75 74 68 72
57 59 62 64 66 64 62 63 67 66 63 66 65 63 64 59 65 66 64 55 58 57 58 58 54 56 60 57 63 65 57 57 61 60 63 61 70 68 71 67 66 69 64
48 50 53 56 61 61 61 65 65 62 63 65 65 62 64 61 67 69 69 57 57 58 55 54 55 52 53 57 55 56 54 56 64 62 68 70 71 68 64 66 70 69 62
49 48 51 53 58 60 64 64 64 62 62 64 67 67 62 58 65 68 60 55 56 59 57 61 58 55 61 61 62 63 58 65 62 67 67 67 69 68 68 72 73 76 71
49 49 49 50 54 58 61 62 63 62 63 60 64 63 70 59 63 63 59 55 59 59 60 61 71 65 65 69 74 76 74 66 63 60 63 64 66 64 75 67 70 79 81
48 50 51 52 53 56 58 55 57 63 61 56 60 62 59 61 60 64 67 57 57 60 62 62 63 71 67 70 66 70 73 67 74 70 69 66 61 61 59 61 67 80 87
51 53 53 54 52 56 56 56 54 59 55 56 58 58 57 57 67 56 59 62 67 63 66 66 62 66 67 66 63 62 73 71 60 59 60 62 61 58 54 56 60 64 66
52 55 55 56 55 55 53 55 54 54 56 56 55 56 57 61 67 60 63 61 68 67 66 66 64 64 67 66 62 56 73 62 62 64 66 68 67 68 65 68 62 64 66
50 54 58 58 58 55 54 52 54 55 56 54 56 58 61 62 64 63 60 64 67 63 62 67 63 65 69 68 65 66 70 76 76 84 81 80 78 80 77 76 83 77 73
49 54 58 59 59 56 54 56 54 50 53 54 56 56 62 63 61 64 65 63 71 67 72 65 65 61 61 66 70 76 79 78 85 84 84 81 85 87 83 77 83 87 96
51 56 60 62 63 58 58 60 62 60 66 63 64 60 62 62 66 66 67 72 68 68 75 71 67 65 68 72 78 79 82 83 92 90 82 88 84 79 75 72 74 83 92
50 54 62 64 62 62 60 60 68 64 66 67 68 69 70 68 66 62 60 70 65 68 74 72 71 73 76 79 83 86 88 87 86 87 85 83 78 76 72 71 71 82 77
51 64 61 66 65 64 61 58 61 67 70 67 66 67 69 68 65 60 58 67 70 70 74 80 80 78 83 85 85 94 97 89 88 86 86 85 97 91 91 74 72 80 86
54 60 61 65 67 66 62 60 60 64 65 69 76 71 69 66 62 58 65 72 76 76 78 83 84 87 93 99 98 97 97 83 82 88 98 93 78 82 82 79 80 88 97
56 64 65 64 68 68 65 64 64 66 67 70 74 73 72 73 68 66 72 73 76 80 81 85 96 88 83 86 85 83 86 86 85 86 82 77 78 83 84 82 93 98 86
61 66 68 65 66 66 65 64 65 68 69 70 69 72 77 74 69 69 72 76 81 82 82 84 88 87 86 85 85 85 84 85 84 86 85 83 83 85 79 84 98 93 78
62 68 70 67 67 68 64 63 66 67 68 67 68 70 76 73 70 73 75 78 82 84 85 89 87 95 99 95 85 80 80 85 85 85 90 86 80 91 93 85 76 76 77
63 70 68 65 67 68 66 64 65 64 67 64 63 64 68 74 72 75 79 80 86 85 84 88 93 94 87 81 78 84 93 94 90 93 95 98 90 78 76 80 80 86 85
68 70 68 68 71 69 68 67 66 69 67 66 63 65 69 76 79 81 80 84 84 83 85 86 90 89 85 83 84 89 95 90 81 82 82 87 84 82 87 87 90 92 95
74 71 68 70 72 71 69 69 72 74 73 64 67 66 69 74 78 78 82 85 84 83 81 83 86 82 79 78 81 80 84 86 83 79 74 80 89 92 94 96 96 96 97
75 70 69 68 72 70 74 78 80 75 68 70 68 70 74 77 78 81 84 83 84 84 82 83 82 75 66 71 74 80 82 78 76 81 84 84 82 76 72 78 76 76 80

GFSGL_sfc_rhum_138.txt.gz
RH
92 91 89 85 81 84 86 86 87 90 91 90 90 92 92 91 86 80 78 72 74 73 74 72 67 64 66 62 63 61 63 67 68 62 58 46 42 42 41 41 40 38 37
91 88 92 92 89 89 92 90 83 87 81 85 82 86 86 85 84 82 80 78 78 76 73 71 64 53 60 61 62 59 57 55 63 58 57 55 51 48 44 45 42 34 36
87 90 88 90 93 92 89 86 79 78 78 75 74 73 70 70 71 68 67 65 67 62 60 56 55 54 56 59 61 56 66 62 59 58 58 50 50 49 50 44 41 39 36
78 80 83 80 79 75 73 73 70 67 66 64 63 61 59 57 57 54 52 51 51 52 54 54 53 53 53 56 57 57 60 66 57 57 57 57 54 51 49 46 47 44 47
70 76 80 76 74 70 68 65 61 60 57 55 54 54 55 55 54 58 56 54 54 53 48 44 47 50 57 55 55 62 60 60 58 56 55 51 46 45 48 53 56 52 45
72 76 74 70 65 63 60 56 55 54 51 50 50 50 53 55 67 62 56 52 53 55 61 60 58 63 63 65 64 59 54 56 55 50 51 54 46 49 54 59 58 55 54
64 64 61 58 59 56 52 52 52 49 45 46 47 48 50 55 67 65 57 48 51 52 53 56 52 51 54 56 64 62 58 57 59 46 48 49 56 60 63 62 55 56 53
53 55 55 54 55 53 50 50 46 45 47 47 46 46 51 56 65 63 56 46 46 46 46 47 47 45 47 44 44 43 41 44 51 48 55 58 59 58 58 57 56 55 48
42 44 46 46 47 47 48 47 44 44 44 42 42 44 45 51 63 58 43 40 43 46 45 45 44 42 58 60 49 51 47 51 63 68 67 66 66 65 67 58 56 60 57
35 36 36 37 42 45 48 47 43 40 43 43 43 41 51 47 62 57 42 37 42 42 43 46 68 57 63 65 53 57 62 60 55 53 53 56 57 57 68 53 53 64 66
33 35 36 38 39 41 44 43 44 42 43 43 46 45 43 47 56 64 56 44 45 47 47 48 49 64 69 71 62 59 60 58 68 56 56 55 49 50 48 50 52 61 70
35 36 36 36 35 38 43 43 41 44 42 42 43 45 44 45 57 63 65 58 58 48 52 49 55 66 68 66 61 72 74 65 54 53 54 55 53 50 48 49 51 54 53
37 38 36 35 36 38 40 43 43 41 40 39 40 42 43 42 45 60 59 62 63 51 48 58 61 63 63 58 57 61 67 58 59 60 59 57 56 55 52 55 53 54 57
36 36 35 36 38 37 37 37 40 41 40 39 40 41 42 44 48 55 53 55 64 57 61 55 58 60 62 62 61 69 58 63 64 72 67 62 61 61 62 63 69 68 73
33 34 36 36 40 38 38 40 40 34 41 40 40 40 46 45 43 51 50 45 50 53 62 58 60 56 56 58 58 62 66 65 70 71 71 69 65 68 62 60 65 68 71
34 35 37 38 41 40 43 47 55 48 56 51 50 45 42 45 56 65 62 65 70 68 58 61 59 57 59 62 64 65 67 70 73 78 73 72 70 66 62 59 62 73 75
36 36 38 42 42 45 46 47 52 59 65 65 63 61 55 53 62 63 66 67 69 63 62 60 60 62 66 67 70 72 75 73 73 77 76 72 68 66 69 71 67 73 73
37 54 41 45 46 47 47 48 46 49 54 57 66 61 66 63 64 64 62 65 66 65 62 67 66 63 69 72 75 77 74 74 76 74 72 73 87 97 79 70 71 76 76
41 43 44 49 51 52 49 47 46 46 49 51 59 64 64 66 66 62 61 60 67 66 63 66 66 69 73 92 94 90 95 93 82 82 92 97 81 75 73 72 76 76 80
45 54 54 52 54 54 53 50 48 48 47 50 55 59 63 67 62 57 57 62 63 65 65 68 69 73 75 76 77 79 79 73 74 75 75 73 69 72 76 76 78 83 95
51 52 60 54 54 58 57 55 52 50 50 52 52 58 65 65 59 58 60 65 70 69 68 70 76 78 78 79 79 79 74 73 77 79 75 74 76 78 72 85 97 92 72
52 53 59 58 58 60 61 53 54 53 50 54 54 64 74 66 60 62 62 68 71 72 72 77 81 83 87 88 82 77 73 76 76 76 77 79 77 74 93 82 72 72 75
51 53 58 56 57 62 59 57 58 51 52 55 61 71 80 71 67 65 70 72 75 75 72 75 82 82 74 73 69 75 81 78 79 82 84 80 77 76 77 79 78 81 79
53 54 58 57 60 61 58 59 54 57 57 60 70 71 68 68 69 69 71 74 75 73 74 75 74 76 72 70 73 77 81 76 72 76 75 77 78 80 79 78 86 96 96
57 57 58 59 67 60 60 55 58 57 59 65 69 69 60 58 66 72 75 77 77 76 71 72 74 72 69 66 67 66 71 78 76 79 73 74 77 78 79 80 79 76 73
61 58 58 59 62 61 65 64 61 60 67 71 68 56 58 63 65 74 76 76 79 76 73 74 72 67 61 62 62 70 77 77 75 78 79 80 80 78 74 76 70 73 72

GFSGL_sfc_rhum_141.txt.gz
RH
92 88 89 91 89 89 90 91 90 90 92 94 95 96 95 92 87 84 78 72 73 72 71 68 68 68 78 80 79 78 77 75 78 67 63 54 51 48 48 50 50 49 47
88 88 89 89 90 92 92 93 86 89 86 88 91 91 91 92 90 86 82 78 76 78 81 80 78 72 79 77 77 69 63 61 68 66 62 62 58 53 51 51 44 36 46
81 82 88 87 89 91 89 85 80 77 76 74 80 81 81 82 82 79 79 78 78 74 72 71 70 67 63 59 62 65 67 59 62 67 68 64 60 58 58 52 48 46 37
81 75 79 80 78 77 76 77 77 75 72 68 63 63 65 62 64 62 60 58 55 55 54 55 53 55 57 61 61 64 64 70 65 70 65 65 61 61 63 58 59 58 57
72 72 71 67 68 64 65 63 60 59 57 55 55 55 55 55 54 58 59 57 55 54 52 50 54 52 56 56 60 66 69 69 68 66 66 64 60 59 59 64 64 60 54
70 72 75 72 71 70 66 62 60 59 55 53 53 55 58 55 65 62 58 56 57 57 55 54 57 61 61 60 58 56 59 66 66 64 64 63 57 56 62 66 64 63 62
71 68 64 62 61 58 56 55 56 53 50 50 48 50 56 60 63 59 58 57 60 59 62 65 58 57 67 63 65 61 59 57 59 56 55 54 56 57 62 64 65 64 62
60 58 54 53 54 53 52 52 48 46 47 47 46 49 56 59 64 59 54 51 50 49 49 51 52 52 52 52 54 49 43 48 56 47 57 57 58 60 58 56 61 63 58
48 48 48 48 51 50 51 47 44 43 43 40 41 45 49 55 58 50 40 40 44 46 43 42 42 42 55 56 49 51 45 51 66 66 66 64 64 64 65 69 67 67 65
42 42 41 39 42 44 45 44 41 38 38 37 38 37 48 50 56 48 36 35 40 40 40 50 64 59 55 58 57 52 58 60 57 55 63 66 63 60 64 64 60 70 70
32 33 34 35 37 40 42 39 38 39 40 39 41 40 39 46 56 57 52 39 42 44 45 49 55 60 68 67 64 58 66 62 67 58 59 58 53 53 52 53 54 62 71
32 32 32 33 33 36 42 40 36 40 40 41 42 43 43 48 60 62 60 52 56 47 49 50 62 66 68 66 62 67 67 63 58 56 59 59 58 55 53 53 56 59 58
33 34 32 31 32 34 37 40 40 39 41 40 42 44 43 42 51 64 61 60 58 52 48 63 63 63 62 58 56 62 68 64 60 63 62 64 62 60 54 61 61 59 59
34 33 31 31 32 32 34 35 39 40 40 40 42 44 45 46 47 56 56 59 62 56 62 60 57 59 61 59 62 69 64 63 62 68 69 65 66 71 67 67 74 71 75
32 32 31 31 32 32 33 36 38 34 42 44 44 44 48 48 44 55 52 47 50 54 57 56 60 58 58 61 65 68 72 67 70 75 71 71 73 72 70 65 71 74 80
32 33 33 33 37 36 38 39 65 58 59 56 56 49 40 43 51 55 57 62 66 65 59 59 62 59 60 65 69 70 70 70 73 76 78 76 72 68 66 62 62 73 78
34 33 36 38 37 41 42 47 54 59 61 60 55 51 47 51 61 63 62 66 69 66 63 61 62 62 63 70 74 77 79 74 70 79 76 73 70 69 74 81 71 72 76
36 53 38 41 43 44 44 47 48 55 59 60 64 60 59 60 62 65 66 67 73 68 67 77 72 72 72 77 79 81 82 79 81 80 79 79 85 88 81 78 77 81 81
40 40 41 48 49 50 48 48 47 49 52 54 64 66 65 62 65 66 64 63 74 77 73 73 71 76 78 84 82 90 85 82 83 87 83 82 82 86 84 80 82 75 77
44 52 50 50 51 52 53 52 50 51 51 56 64 67 67 71 71 67 63 64 68 73 72 75 74 77 80 85 85 86 87 80 80 80 79 77 78 78 81 84 87 93 91
51 49 54 52 53 55 56 54 53 56 56 56 59 61 69 74 70 71 66 69 77 76 75 75 82 82 83 83 85 86 82 79 80 81 82 80 81 84 81 85 84 87 85
53 54 56 56 58 60 59 55 57 58 54 57 56 66 71 70 75 72 67 72 74 77 78 81 85 86 86 86 83 84 80 81 81 81 82 82 79 78 78 81 82 86 83
54 55 60 57 60 64 61 58 60 56 55 55 62 73 76 81 77 70 77 76 79 81 78 83 89 86 80 78 76 83 88 84 84 82 85 82 76 75 80 86 86 87 85
57 57 63 61 63 65 65 64 61 60 54 60 71 77 83 84 80 76 76 79 82 81 82 83 85 81 76 74 74 78 81 80 77 78 73 73 77 75 81 83 83 82 84
61 59 63 64 68 69 67 64 62 56 58 65 70 78 79 78 74 76 78 83 85 84 82 83 80 74 67 65 70 70 75 76 70 74 78 76 78 78 81 84 79 75 74
64 60 64 64 70 68 67 66 63 63 64 66 74 79 78 74 71 79 83 83 87 86 83 83 73 67 64 62 61 67 74 72 74 75 80 82 83 83 81 80 75 77 78